Hourly Data Report for November 12, 2018

CARBERRY CS
MANITOBA
Current Station Operator: ECCC - MSC

49°54'20.900" N
99°21'26.800" W
383.50 m
5010547
71170
WZE

Download Data

Hourly Data (November 2018)
Hourly Data Report for November 12, 2018
TIME
LST
Temp Definition
°C
Dew Point Definition
°C
Rel Hum Definition
%
Precip. Amount Definition
mm

Wind Dir Definition
10's deg

Wind Spd Definition
km/h
Visibility Definition
km
Stn Press Definition
kPa
Hmdx Definition


Wind Chill Definition


Weather Definition


00:00 -11.4 -13.6 84 0.0 36 21   98.53   -20 LegendNANA
01:00 -12.0 -15.0 79 0.0 36 21   98.65   -21 LegendNANA
02:00 -13.9 -19.3 64 0.2 33 20   98.74   -23 LegendNANA
03:00 -15.8 -20.3 69 0.0 32 12   98.75   -23 LegendNANA
04:00 -17.7 -21.8 70 0.0 28 12   98.78   -25 LegendNANA
05:00 -15.1 -19.1 71 0.0 28 15   98.80   -23 LegendNANA
06:00 -14.1 -18.6 69 0.0 28 18   98.78   -23 LegendNANA
07:00 -15.0 -19.0 71 0.0 27 14   98.79   -23 LegendNANA
08:00 -14.2 -18.4 70 0.0 27 15   98.80   -22 LegendNANA
09:00 -13.6 -18.3 68 0.0 25 13   98.81   -21 LegendNANA
10:00 -12.8 -17.9 65 0.0 25 14   98.80   -20 LegendNANA
11:00 -12.1 -17.9 62 0.0 26 19   98.74   -20 LegendNANA
12:00 -11.6 -17.6 61 0.0 27 24   98.69   -21 LegendNANA
13:00 -10.7 -17.3 58 0.0 27 15   98.64   -18 LegendNANA
14:00 -10.6 -18.1 54 0.0 27 18   98.59   -18 LegendNANA
15:00 -11.5 -18.0 59 0.0 28 15   98.57   -19 LegendNANA
16:00 -11.6 -17.0 64 0.0 26 19   98.53   -20 LegendNANA
17:00 -12.3 -17.0 68 0.0 27 17   98.52   -20 LegendNANA
18:00 -12.9 -17.8 66 0.0 28 11   98.48   -19 LegendNANA
19:00 -14.2 -18.1 72 0.0 23 6   98.46   -18 LegendNANA
20:00 -16.5 -18.8 83 0.0 23 5   98.43   -20 LegendNANA
21:00 -18.5 -20.5 84 0.0 26 7   98.40   -24 LegendNANA
22:00 -19.0 -21.0 84 0.0 23 5   98.39   -23 LegendNANA
23:00 -16.3 -18.4 84 0.0 24 4   98.39   -19 LegendNANA

Notes on Data Quality.

Legend

  • E = Estimated
  • M = Missing
  • NA = Not Available*
  • [empty] = Indicates an unobserved value
Date modified: